[[{"header":{"parameterUnit":"m.s-1","parameterCategory":1,"la1":30.2991,"la2":30.254,"lo1":-89.0895,"lo2":-89.0444,"dy":0.0017,"dx":0.0017,"nx":28,"ny":28,"refTime":"2025-08-17T21:00:00:Z","depth":0,"parameterNumber":2,"parameterNumberName":"U-component_of_WINDS"},"data":[0,0,0,0,0,0,0,0,0,0,0,0,0,0,0,0,0,0,0,0,0,0,0,0,0,0,0,0,0,0,0,0,0,0,0,0,0,0,0,0,0,0,0,0,0,0,0,0,0,0,0,0,0,0,0,0,0,0,0.7525,0.7525,0,0.7523,0.7523,0.7522,0.7485,0.7484,0.7484,0.7483,0.748,0.7481,0.7481,0,0,0,0,0,0,0,0,0,0,0,0,0,0.75,0.75,0.7525,0.7525,0.7525,0.7523,0.7523,0.7522,0.7486,0.7484,0.7483,0.7482,0.748,0.7481,0.7482,0,0,0,0,0,0,0,0,0,0,0,0,0,0.7505,0.75,0.7525,0.7506,0.7505,0.7523,0.7523,0.7522,0.7486,0.7484,0.7483,0.7482,0.7479,0.7481,0.7482,0.7517,0,0,0.7485,0.7486,0,0,0,0,0,0,0,0,0.7505,0.7506,0.7509,0.7508,0.7506,0.7503,0.7512,0.7521,0.7486,0.7493,0.7483,0.7481,0.7489,0.7489,0.7492,0.7517,0.7517,0.7485,0.7486,0.7487,0.7487,0,0,0,0,0,0,0,0.7505,0.7506,0.7524,0.7509,0.7507,0.7499,0.7498,0.7514,0.7499,0.7492,0.749,0.749,0.7487,0.7491,0.7491,0.7517,0.7485,0.7487,0.7487,0.7488,0.7575,0.7576,0,0,0,0,0,0,0.7507,0.7506,0.7524,0.7524,0.7502,0.75,0.7499,0.7505,0.7498,0.7496,0.7491,0.7488,0.7489,0.749,0.7491,0.7534,0.7487,0.7488,0.7489,0.7573,0.7575,0.7577,0,0,0,0,0,0,0.7506,0.7509,0.7524,0.7514,0.7516,0.7502,0.7509,0.7506,0.7509,0.7498,0.7495,0.7497,0.7488,0.7489,0.7512,0.7534,0.7488,0.749,0.7571,0.7574,0.7576,0.762,0,0,0,0,0,0,0.7506,0.7509,0.7522,0.7515,0.7516,0.7545,0.751,0.7507,0.7511,0.7507,0.7502,0.75,0.7487,0.751,0.7513,0.7534,0.749,0.7569,0.7572,0.7575,0.7616,0.7623,0.763,0,0,0,0,0,0.7505,0.7534,0.7523,0.7525,0.7532,0.7546,0.7547,0.7531,0.7513,0.7526,0.7519,0.75,0.7531,0.7513,0.7516,0.7538,0.7568,0.7571,0.7575,0.7614,0.7622,0.7629,0,0,0,0,0,0,0.7543,0.7532,0.752,0.7547,0.7548,0.754,0.7556,0.7541,0.7546,0.7542,0.7523,0.7522,0.7548,0.7545,0.7525,0.7573,0.7546,0.755,0.7574,0.7583,0.7589,0.759,0.7491,0,0,0,0,0,0.7554,0.7566,0.7556,0.7582,0.7583,0.757,0.7575,0.7563,0.7563,0.7563,0.7557,0.7558,0.7568,0.7575,0.7583,0.7616,0.7615,0.7632,0.7639,0.7644,0.7649,0.7668,0.7676,0.7588,0.7588,0.7588,0,0,0.7578,0.7574,0.7583,0.7589,0.7588,0.7602,0.757,0.7585,0.7595,0.7565,0.7586,0.7583,0.7582,0.7611,0.7623,0.7609,0.7673,0.7649,0.7653,0.7655,0.7673,0.7681,0.7688,0.7591,0.759,0.759,0,0,0.7629,0.7626,0.7648,0.7648,0.7648,0.7639,0.7645,0.7639,0.7636,0.7657,0.7636,0.7647,0.7664,0.7666,0.7669,0.7722,0.7706,0.7726,0.776,0.7779,0.7786,0.7792,0.7813,0.7821,0.773,0.773,0.773,0,0.7659,0.7678,0.7661,0.7678,0.7683,0.7657,0.768,0.7681,0.7683,0.7687,0.7671,0.7693,0.7691,0.772,0.7734,0.7736,0.7743,0.7726,0.7786,0.7792,0.7798,0.7818,0.7825,0.7732,0.7732,0.7732,0.7732,0,0.7716,0.773,0.7747,0.7751,0.7757,0.7777,0.7764,0.7772,0.7761,0.7754,0.7777,0.7774,0.7782,0.7788,0.7776,0.7816,0.7808,0.779,0.7762,0.7809,0.7828,0.7835,0.7736,0.7735,0.7734,0.7734,0,0,0.779,0.7785,0.7792,0.7795,0.7793,0.7804,0.7823,0.7832,0.784,0.7843,0.786,0.7876,0.7859,0.7863,0.7851,0.7867,0.7913,0.7847,0.7847,0.7861,0.796,0.7975,0.7984,0.7902,0.7903,0.7904,0.796,0,0.784,0.7873,0.786,0.7894,0.7908,0.7884,0.7902,0.7903,0.7898,0.7909,0.7903,0.7916,0.7892,0.7894,0.791,0.7904,0.7933,0.79,0.7918,0.7919,0.7921,0.7993,0.8008,0.8062,0.7967,0.7968,0.7969,0,0.7903,0.791,0.7946,0.7945,0.795,0.7965,0.7973,0.7984,0.7986,0.7981,0.7986,0.7971,0.7991,0.7963,0.7991,0.7969,0.7976,0.7975,0.7977,0.7979,0.7948,0.7999,0.8078,0.8087,0.798,0.7979,0.7979,0,0.7956,0.7974,0.7999,0.8001,0.7999,0.8011,0.8011,0.8011,0.8018,0.8025,0.8029,0.8038,0.8044,0.8052,0.804,0.802,0.8071,0.8041,0.8068,0.8069,0.8081,0.808,0.8164,0.8083,0.8083,0.8083,0.8082,0,0.8015,0.8038,0.8023,0.8038,0.8064,0.8048,0.8075,0.8072,0.8073,0.8088,0.8068,0.8083,0.8066,0.8079,0.807,0.8096,0.8098,0.8096,0.8094,0.8099,0.8099,0.8104,0.81,0.8085,0.8084,0.8084,0.8083,0,0.8078,0.8068,0.8094,0.8091,0.809,0.811,0.8107,0.8122,0.8116,0.8135,0.8139,0.8129,0.8144,0.8134,0.8148,0.8142,0.8177,0.8168,0.8177,0.8175,0.8203,0.8202,0.8294,0.8306,0.8216,0.8217,0.8217,0,0.8117,0.8135,0.8134,0.8143,0.8144,0.8158,0.8165,0.8151,0.816,0.8165,0.8179,0.8192,0.8202,0.8227,0.8222,0.8234,0.8227,0.8258,0.8228,0.8233,0.8229,0.8229,0.8232,0.8265,0.8266,0.8266,0.8267,0,0.8187,0.8182,0.8193,0.8204,0.8213,0.8221,0.8226,0.8235,0.8221,0.8232,0.8247,0.8255,0.8271,0.8285,0.8295,0.8295,0.828,0.8277,0.8284,0.829,0.8295,0.8294,0.8195,0.8275,0.8274,0.8273,0.8273,0.8273,0.8241,0.8256,0.8259,0.8273,0.8276,0.8282,0.8296,0.8293,0.8305,0.8317,0.8308,0.8327,0.833,0.8342,0.8345,0.836,0.8347,0.8357,0.836,0.8363,0.8368,0.8291,0.8362,0.8361,0.8361,0.8361,0.8361,0,0.8312,0.8312,0.8325,0.8335,0.8346,0.8331,0.8337,0.8348,0.8365,0.8369,0.838,0.8399,0.8413,0.841,0.8423,0.8436,0.8429,0.844,0.8439,0.844,0.8378,0.8371,0.8445,0.8445,0.8445,0.8445,0.8445,0.8445,0.835,0.8376,0.8372,0.84,0.8401,0.842,0.8425,0.8431,0.8435,0.8457,0.8469,0.8467,0.8469,0.8482,0.8495,0.8494,0.85,0.8514,0.851,0.8452,0.8444,0.8436,0.843,0.8515,0.8515,0.8571,0.8572,0.8572]},{"header":{"parameterUnit":"m.s-1","parameterCategory":1,"la1":30.2991,"la2":30.254,"lo1":-89.0895,"lo2":-89.0444,"dy":0.0017,"dx":0.0017,"nx":28,"ny":28,"refTime":"2025-08-17T21:00:00:Z","depth":0,"parameterNumber":3,"parameterNumberName":"V-component_of_WINDS"},"data":[0,0,0,0,0,0,0,0,0,0,0,0,0,0,0,0,0,0,0,0,0,0,0,0,0,0,0,0,0,0,0,0,0,0,0,0,0,0,0,0,0,0,0,0,0,0,0,0,0,0,0,0,0,0,0,0,0,0,-2.1168,-2.1168,0,-2.1145,-2.1145,-2.1145,-2.1107,-2.1107,-2.1106,-2.1105,-2.1081,-2.1081,-2.1081,0,0,0,0,0,0,0,0,0,0,0,0,0,-2.118,-2.118,-2.1168,-2.1168,-2.1168,-2.1145,-2.1145,-2.1145,-2.1107,-2.1107,-2.1106,-2.1105,-2.1081,-2.1081,-2.1081,0,0,0,0,0,0,0,0,0,0,0,0,0,-2.1168,-2.118,-2.1168,-2.1146,-2.1144,-2.1145,-2.1145,-2.1145,-2.1108,-2.1107,-2.1106,-2.1105,-2.1081,-2.1081,-2.1081,-2.1102,0,0,-2.1081,-2.1081,0,0,0,0,0,0,0,0,-2.1169,-2.1168,-2.115,-2.1148,-2.1146,-2.1128,-2.114,-2.113,-2.1108,-2.1122,-2.1105,-2.1104,-2.1098,-2.1096,-2.1094,-2.1101,-2.11,-2.1081,-2.1081,-2.1081,-2.1081,0,0,0,0,0,0,0,-2.117,-2.1168,-2.1159,-2.115,-2.1147,-2.1138,-2.1135,-2.1138,-2.1116,-2.112,-2.1117,-2.1115,-2.1096,-2.1094,-2.1093,-2.1099,-2.1081,-2.1081,-2.1081,-2.1081,-2.1121,-2.1122,0,0,0,0,0,0,-2.1174,-2.1169,-2.116,-2.1158,-2.1155,-2.1138,-2.1135,-2.1135,-2.1116,-2.1112,-2.1116,-2.1114,-2.1095,-2.1093,-2.1092,-2.1115,-2.1081,-2.1081,-2.1081,-2.112,-2.1122,-2.1123,0,0,0,0,0,0,-2.1174,-2.1173,-2.1161,-2.1163,-2.1161,-2.1139,-2.1139,-2.1135,-2.1133,-2.1112,-2.1108,-2.1118,-2.1094,-2.1092,-2.11,-2.1113,-2.1081,-2.1081,-2.1119,-2.1121,-2.1122,-2.116,0,0,0,0,0,0,-2.1175,-2.1174,-2.1181,-2.1164,-2.1161,-2.1169,-2.114,-2.1135,-2.1133,-2.1129,-2.1113,-2.111,-2.1093,-2.11,-2.11,-2.1113,-2.1081,-2.1118,-2.112,-2.1122,-2.1157,-2.1162,-2.1167,0,0,0,0,0,-2.1175,-2.1193,-2.1182,-2.1181,-2.117,-2.117,-2.1168,-2.1149,-2.1134,-2.1141,-2.1128,-2.111,-2.1112,-2.1101,-2.1101,-2.1114,-2.1117,-2.1119,-2.1122,-2.1155,-2.1161,-2.1167,0,0,0,0,0,0,-2.1212,-2.119,-2.1177,-2.119,-2.1182,-2.1163,-2.1172,-2.1156,-2.1152,-2.1149,-2.1125,-2.1122,-2.1132,-2.1124,-2.1112,-2.1132,-2.1112,-2.1114,-2.1137,-2.1143,-2.1148,-2.1149,-2.1081,0,0,0,0,0,-2.1222,-2.1223,-2.1204,-2.1217,-2.1213,-2.1194,-2.1193,-2.1178,-2.1169,-2.1166,-2.1153,-2.1145,-2.1143,-2.1143,-2.1141,-2.1156,-2.1152,-2.1165,-2.117,-2.1174,-2.1176,-2.1183,-2.1188,-2.1131,-2.1131,-2.1131,0,0,-2.1241,-2.123,-2.1232,-2.1224,-2.1216,-2.1218,-2.1191,-2.1194,-2.1195,-2.1166,-2.1172,-2.1163,-2.1152,-2.1163,-2.1168,-2.1157,-2.1191,-2.1177,-2.118,-2.118,-2.1186,-2.1192,-2.1196,-2.1132,-2.1132,-2.1132,0,0,-2.1278,-2.127,-2.1279,-2.1272,-2.1261,-2.1247,-2.125,-2.1234,-2.1226,-2.1232,-2.121,-2.1211,-2.121,-2.1203,-2.1199,-2.1234,-2.1217,-2.1234,-2.1259,-2.1266,-2.1271,-2.1275,-2.1286,-2.1291,-2.1236,-2.1236,-2.1236,0,-2.1304,-2.1306,-2.1286,-2.1291,-2.1288,-2.1262,-2.1271,-2.1265,-2.1254,-2.1252,-2.124,-2.1237,-2.1228,-2.1237,-2.1246,-2.1244,-2.1246,-2.1235,-2.1272,-2.1275,-2.1279,-2.129,-2.1294,-2.1238,-2.1238,-2.1238,-2.1238,0,-2.1338,-2.134,-2.1349,-2.1339,-2.1337,-2.1344,-2.1325,-2.1326,-2.1312,-2.13,-2.1306,-2.1294,-2.1289,-2.1291,-2.1277,-2.1298,-2.1291,-2.1276,-2.1254,-2.1287,-2.1296,-2.1301,-2.1241,-2.1241,-2.124,-2.124,0,0,-2.1397,-2.1375,-2.1379,-2.1374,-2.136,-2.1361,-2.1367,-2.1362,-2.1362,-2.1356,-2.136,-2.1359,-2.1345,-2.1341,-2.1327,-2.1333,-2.1361,-2.1317,-2.1316,-2.1325,-2.1382,-2.1393,-2.1398,-2.135,-2.1351,-2.1351,-2.1383,0,-2.143,-2.1439,-2.1421,-2.1434,-2.1435,-2.1411,-2.1416,-2.1408,-2.1397,-2.1397,-2.1385,-2.1385,-2.1366,-2.1364,-2.1369,-2.1356,-2.1372,-2.1354,-2.1353,-2.1353,-2.1355,-2.1403,-2.1415,-2.1445,-2.1387,-2.1387,-2.1388,0,-2.1469,-2.1464,-2.1478,-2.1463,-2.1463,-2.1468,-2.1462,-2.1462,-2.1452,-2.1444,-2.144,-2.1423,-2.1428,-2.1408,-2.1414,-2.1402,-2.1401,-2.1395,-2.1395,-2.1393,-2.1371,-2.1402,-2.1454,-2.1458,-2.1394,-2.1393,-2.1393,0,-2.1509,-2.1506,-2.1514,-2.151,-2.1493,-2.1497,-2.149,-2.148,-2.1478,-2.1473,-2.1471,-2.1467,-2.1464,-2.1461,-2.1444,-2.1431,-2.1452,-2.1431,-2.1444,-2.1445,-2.1449,-2.1449,-2.1501,-2.145,-2.145,-2.145,-2.145,0,-2.1547,-2.1556,-2.1531,-2.1536,-2.1545,-2.1525,-2.1535,-2.1525,-2.1516,-2.1518,-2.1497,-2.15,-2.1477,-2.1477,-2.1464,-2.1471,-2.147,-2.1463,-2.1459,-2.1464,-2.1465,-2.1462,-2.1459,-2.1451,-2.1451,-2.1451,-2.145,0,-2.1593,-2.1577,-2.1583,-2.1567,-2.1563,-2.1571,-2.1556,-2.156,-2.1548,-2.1551,-2.1551,-2.1532,-2.1531,-2.1514,-2.1509,-2.15,-2.1512,-2.1504,-2.1515,-2.1512,-2.1526,-2.1525,-2.1578,-2.1583,-2.153,-2.1531,-2.1531,0,-2.1618,-2.1624,-2.1609,-2.1609,-2.1603,-2.1603,-2.1601,-2.1582,-2.1581,-2.157,-2.1575,-2.1572,-2.1569,-2.1568,-2.1554,-2.155,-2.1542,-2.1561,-2.1541,-2.1546,-2.1541,-2.1541,-2.1541,-2.1565,-2.1565,-2.1566,-2.1566,0,-2.1663,-2.1655,-2.1653,-2.1649,-2.1647,-2.1643,-2.1637,-2.1638,-2.1617,-2.1616,-2.1615,-2.1612,-2.1608,-2.1605,-2.1599,-2.1591,-2.1575,-2.1573,-2.1576,-2.158,-2.1586,-2.1582,-2.1525,-2.1571,-2.1571,-2.1571,-2.157,-2.157,-2.1699,-2.1703,-2.1693,-2.1691,-2.1685,-2.168,-2.1682,-2.1671,-2.167,-2.1664,-2.1653,-2.1653,-2.1644,-2.1634,-2.1628,-2.1628,-2.1618,-2.1622,-2.1623,-2.1624,-2.1627,-2.1587,-2.1627,-2.1626,-2.1626,-2.1626,-2.1626,0,-2.1742,-2.1735,-2.1734,-2.1726,-2.1725,-2.1711,-2.1703,-2.1703,-2.1704,-2.1696,-2.1694,-2.1692,-2.169,-2.1676,-2.1672,-2.1674,-2.1666,-2.1673,-2.1672,-2.1671,-2.1636,-2.1634,-2.168,-2.168,-2.168,-2.168,-2.168,-2.168,-2.1765,-2.1771,-2.1762,-2.1765,-2.1757,-2.1757,-2.1754,-2.175,-2.1743,-2.1743,-2.174,-2.1732,-2.1722,-2.1717,-2.1713,-2.1709,-2.1708,-2.1718,-2.1711,-2.1679,-2.1673,-2.1668,-2.1666,-2.1718,-2.1718,-2.1746,-2.1746,-2.1746]}]]